Regional Weather Roundup
Issued by NWS

Home | Current Version | Previous Version | Graphics & Text | Print | Product List | Glossary On
Versions: 1 2 3 4 5 6 7 8 9 10 11 12 13 14 15 16 17 18 19 20 21 22 23 24 25 26 27 28 29 30 31 32 33 34 35 36 37 38 39 40 41 42 43 44 45 46 47 48 49 50
000
ASUS43 KOAX 201202
RWRNE

WEATHER ROUNDUP FOR NEBRASKA
NATIONAL WEATHER SERVICE OMAHA NE
600 AM CST SAT DEC 20 2014

NOTES: SATELLITE DATA IS BEING USED TO AUGMENT CLOUD COVER ABOVE
       12000 FEET.
       "FAIR" INDICATES FEW OR NO CLOUDS BELOW 12,000 FEET WITH NO
       SIGNIFICANT WEATHER AND/OR OBSTRUCTIONS TO VISIBILITY.

  * THESE STATIONS DO NOT REPORT WEATHER SUCH AS RAIN...SNOW OR FOG.

NEZ001>004-019>022-054>056-201300-
NEBRASKA PANHANDLE

CITY           SKY/WX    TMP DP  RH WIND       PRES   REMARKS
SCOTTSBLUFF    PTCLDY    11   8  88 CALM      29.96F
6HR MIN TEMP:  11; 6HR MAX TEMP:  17;

ALLIANCE       PTCLDY     7   4  87 SW6       29.95S WCI  -3
6HR MIN TEMP:   6; 6HR MAX TEMP:  16;

CHADRON        CLEAR     18  14  84 SW5       29.95R WCI  11
6HR MIN TEMP:  12; 6HR MAX TEMP:  19;

SIDNEY         PTCLDY    21  13  71 W13       29.98S WCI   9
6HR MIN TEMP:  14; 6HR MAX TEMP:  21;

$$

NEZ057>060-069>072-079>082-201300-
SOUTHWEST NEBRASKA

CITY           SKY/WX    TMP DP  RH WIND       PRES   REMARKS
NORTH PLATTE   CLEAR     15  13  91 NW3       30.01S
6HR MIN TEMP:  15; 6HR MAX TEMP:  19;

IMPERIAL       CLEAR     19  15  84 SW5       30.01S WCI  12
6HR MIN TEMP:  19; 6HR MAX TEMP:  29;

MCCOOK         CLEAR     23  20  88 W6        30.03S WCI  16
6HR MIN TEMP:  21; 6HR MAX TEMP:  29;

$$

NEZ005>010-023>029-035>040-094-201300-
NORTH CENTRAL NEBRASKA

CITY           SKY/WX    TMP DP  RH WIND       PRES   REMARKS
VALENTINE      CLEAR     15  12  88 SW6       29.97S WCI   6
6HR MIN TEMP:  12; 6HR MAX TEMP:  18;

BROKEN BOW     CLEAR     19  16  88 W3        29.99S
6HR MIN TEMP:  17; 6HR MAX TEMP:  28;

$$

NEZ041-046>049-061>064-073>077-083>087-201300-
SOUTH CENTRAL NEBRASKA

CITY           SKY/WX    TMP DP  RH WIND       PRES   REMARKS
GRAND ISLAND   FOG       29  28  96 CALM      30.05R VSB 1/4
6HR MIN TEMP:  29; 6HR MAX TEMP:  32;

HASTINGS       FOG       26  23  88 CALM      30.04R VSB 1/4
6HR MIN TEMP:  26; 6HR MAX TEMP:  31;

KEARNEY *      CLEAR     18  16  93 CALM      30.03R
$$

NEZ011>018-030>034-042>045-201300-
NORTHEAST NEBRASKA

CITY           SKY/WX    TMP DP  RH WIND       PRES   REMARKS
NORFOLK        CLOUDY    32  31  96 S8        30.05R FOG     WCI  25
6HR MIN TEMP:  32; 6HR MAX TEMP:  34;

COLUMBUS *     CLOUDY    32  28  86 SE6       30.08R WCI  26
TEKAMAH        CLOUDY    32  30  92 SE8       30.10S FOG     WCI  25
6HR MIN TEMP:  32; 6HR MAX TEMP:  32;

$$

NEZ050>053-065>068-078-088>093-201300-
SOUTHEAST NEBRASKA

CITY           SKY/WX    TMP DP  RH WIND       PRES   REMARKS
LINCOLN        CLOUDY    33  31  92 S6        30.09S FOG     WCI  28
6HR MIN TEMP:  33; 6HR MAX TEMP:  34;

OMAHA EPPLEY   FRZ DRZL  32  31  96 S12       30.11F FOG     WCI  23
6HR MIN TEMP:  31; 6HR MAX TEMP:  32; 6HR PCP: TRACE;

FALLS CITY     CLOUDY    32  29  88 SE6       30.12S WCI  26
6HR MIN TEMP:  31; 6HR MAX TEMP:  32;

$$

NEZ044-045-051>053-067-201300-
OMAHA AREA

CITY           SKY/WX    TMP DP  RH WIND       PRES   REMARKS
OMAHA EPPLEY   FRZ DRZL  32  31  96 S12       30.11F FOG     WCI  23
6HR MIN TEMP:  31; 6HR MAX TEMP:  32; 6HR PCP: TRACE;

OFFUTT AFB     CLOUDY    32  32 100 SE9       30.10S FOG     WCI  24
$$



USA.gov is the U.S. government's official web portal to all federal, state and local government web resources and services.